Regional Weather Roundup
Issued by NWS Spokane, WA

Home | Current Version | Previous Version | Text Only | Print | Product List | Glossary On
Versions: 1 2 3 4 5 6 7 8 9 10 11 12 13 14 15 16 17 18 19 20 21 22 23 24 25 26 27 28 29 30 31 32 33 34 35 36 37 38 39 40 41 42 43 44 45 46 47 48 49 50
758
NZUS01 KOTX 281925
RWROTX

Eastern Washington/Northern Idaho Roundup
National Weather Service, Spokane WA
1200 PM PDT WED SEP 28 2016

Note: "fair" indicated few or no clouds below 12,000 feet with no
significant weather and/or obstructions to visibility.

...Northeast Washington and Northern Idaho Panhandle...

CITY           SKY/WX    TMP DP  RH WIND       PRES   REMARKS
Spokane Intl   MOSUNNY   70  43  37 NE7       30.02F
Spokane Downto SUNNY     74  47  38 CALM      30.02F
Coeur d Alene  SUNNY     70  47  43 N15       30.03F
Deer Park      SUNNY     74  42  31 NE9       30.03F
Sandpoint      SUNNY     72  43  35 NE13      30.04F
Bonners Ferry  FAIR      66  41  39 N3        30.08F

...Southeast Washington and southern Idaho Panhandle...

CITY           SKY/WX    TMP DP  RH WIND       PRES   REMARKS
Walla Walla    SUNNY     67  37  33 SW9       30.00F
Pullman/Moscow SUNNY     76  47  35 E3        30.02F
Lewiston       SUNNY     74  48  39 CALM      29.96F
Lowell           N/A     71  52  50 N3        29.97F
Grangeville    FAIR      75  45  33 CALM      30.02F

...Columbia Basin...

CITY           SKY/WX    TMP DP  RH WIND       PRES   REMARKS
Ephrata        MOSUNNY   75  33  21 N5        30.00F
Moses Lake     SUNNY     76  35  22 N9        30.01F
Pasco          SUNNY     73  42  32 N7        30.00F
Hermiston      SUNNY     73  38  27 VRB5      29.99F
Pendleton      SUNNY     69  34  27 VRB5      30.01F

...East Slopes Cascades...

CITY           SKY/WX    TMP DP  RH WIND       PRES   REMARKS
The Dalles     SUNNY     71  49  45 N3        29.99F
Yakima         MOSUNNY   76  41  28 NW7       30.01F
Ellensburg     SUNNY     67  46  47 CALM      30.04F
Stampede Pass  MOSUNNY   54  44  69 VRB3      30.10F
Wenatchee      MOSUNNY   67  42  40 SW6       30.03F
Omak           PTSUNNY   65  31  28 N20G26    30.08F
Sunnyside      CLEAR     69  45  41 SW3       30.00F

...Southern British Columbia...

CITY           SKY/WX    TMP DP  RH WIND       PRES   REMARKS
Penticton      MOSUNNY   63  37  39 N14       30.14F
Castlegar      PTSUNNY   61  41  48 NW10      30.11F
Cranbrook      PTSUNNY   63  37  39 CALM      30.15F
Osoyoos          N/A     64  37  36 NW9         N/A
Creston          N/A     64  45  48 NW8         N/A

...Western Montana...

CITY           SKY/WX    TMP DP  RH WIND       PRES   REMARKS
Kalispell      CLEAR     69  41  36 NE9       30.10F
Libby            N/A     66  45  45 N6        30.08F
Missoula       SUNNY     74  44  34 SE10      30.09F

...Neighboring Cities...

CITY           SKY/WX    TMP DP  RH WIND       PRES   REMARKS
Seattle        MOSUNNY   60  49  66 N8        30.11F
Portland       MOSUNNY   66  48  52 CALM      30.05F
Boise          SUNNY     83  42  23 S10       30.01F
Great Falls    SUNNY     59  41  51 VRB5      30.24F
Calgary        PTSUNNY   52  34  50 S18G24    30.24F



USA.gov is the U.S. government's official web portal to all federal, state and local government web resources and services.